EW3043 Weather Reports


Display with metric or nautical units.
time (UTC)temp
F
wind
direction
speed
MPH
gust
MPH
rain 1hr
in
rain 24hr
in
rain mn
in
humidity
%
barometer
mb
20240612160155 75 67 1.0 6.0 0.00 0.00 0.00 11 1023.3
20240612155652 74 68 1.0 6.0 0.00 0.00 0.00 12 1023.4
20240612155149 75 193 2.0 3.0 0.00 0.00 0.00 12 1023.4
20240612154646 75 127 1.0 6.0 0.00 0.00 0.00 13 1023.3
20240612154143 75 153 2.0 6.0 0.00 0.00 0.00 13 1023.2
20240612153640 75 233 0.0 1.0 0.00 0.00 0.00 12 1023.3
20240612153157 75 240 0.0 1.0 0.00 0.00 0.00 15 1023.2
20240612152653 73 240 0.0 1.0 0.00 0.00 0.00 15 1023.1
20240612152152 72 244 0.0 1.0 0.00 0.00 0.00 15 1023.0
20240612151650 72 314 0.0 2.0 0.00 0.00 0.00 15 1023.0
20240612151144 72 46 0.0 2.0 0.00 0.00 0.00 14 1023.1
20240612150641 71 15 0.0 1.0 0.00 0.00 0.00 15 1023.0
20240612150219 71 20 0.0 1.0 0.00 0.00 0.00 18 1023.0
20240612145654 70 6 0.0 1.0 0.00 0.00 0.00 15 1023.0
20240612145151 70 312 0.0 1.0 0.00 0.00 0.00 17 1022.9
20240612144651 70 276 0.0 1.0 0.00 0.00 0.00 21 1022.8
20240612144148 69 275 0.0 0.0 0.00 0.00 0.00 19 1022.8
20240612143645 68 275 0.0 1.0 0.00 0.00 0.00 15 1022.7
20240612143142 68 275 0.0 1.0 0.00 0.00 0.00 19 1022.7
20240612142659 66 275 0.0 0.0 0.00 0.00 0.00 24 1022.7
20240612142155 65 275 0.0 0.0 0.00 0.00 0.00 27 1022.7
20240612141653 64 275 0.0 1.0 0.00 0.00 0.00 25 1022.6
20240612141151 64 275 0.0 1.0 0.00 0.00 0.00 26 1022.6
20240612140648 63 275 0.0 0.0 0.00 0.00 0.00 32 1022.6
20240612140145 62 275 0.0 0.0 0.00 0.00 0.00 22 1022.5
20240612135705 62 275 0.0 0.0 0.00 0.00 0.00 26 1022.5
20240612135201 62 275 0.0 0.0 0.00 0.00 0.00 23 1022.5
20240612134658 62 275 0.0 0.0 0.00 0.00 0.00 29 1022.5
20240612134155 61 275 0.0 0.0 0.00 0.00 0.00 24 1022.4
20240612133653 61 275 0.0 1.0 0.00 0.00 0.00 27 1022.4
20240612133150 61 276 0.0 1.0 0.00 0.00 0.00 20 1022.3
20240612132646 60 194 0.0 0.0 0.00 0.00 0.00 25 1022.3
20240612132148 59 194 0.0 0.0 0.00 0.00 0.00 25 1022.3
20240612131705 59 194 0.0 0.0 0.00 0.00 0.00 25 1022.3
20240612131141 59 194 0.0 0.0 0.00 0.00 0.00 27 1022.2
20240612130657 59 194 0.0 0.0 0.00 0.00 0.00 26 1022.2
20240612130154 58 194 0.0 0.0 0.00 0.00 0.00 24 1022.2
20240612125653 59 194 0.0 0.0 0.00 0.00 0.00 23 1022.1
20240612125150 59 194 0.0 0.0 0.00 0.00 0.00 22 1022.1
20240612124647 58 194 0.0 0.0 0.00 0.00 0.00 20 1022.0
20240612124145 58 194 0.0 1.0 0.00 0.00 0.00 20 1022.0
20240612123642 59 194 0.0 1.0 0.00 0.00 0.00 20 1022.0
20240612123201 58 273 0.0 0.0 0.00 0.00 0.00 19 1021.9
20240612122718 58 273 0.0 0.0 0.00 0.00 0.00 20 1021.9
20240612122153 57 273 0.0 0.0 0.00 0.00 0.00 18 1021.9
20240612121650 58 273 0.0 0.0 0.00 0.00 0.00 18 1021.9
20240612121207 57 273 0.0 0.0 0.00 0.00 0.00 18 1021.9
20240612120643 58 273 0.0 1.0 0.00 0.00 0.00 18 1021.9
20240612120201 58 273 0.0 1.0 0.00 0.00 0.00 18 1021.9
20240612115700 58 224 0.0 0.0 0.00 0.00 0.00 18 1021.8
20240612115142 57 224 0.0 0.0 0.00 0.00 0.00 19 1021.8
20240612114700 57 224 0.0 0.0 0.00 0.00 0.00 19 1021.9
20240612114153 58 224 0.0 1.0 0.00 0.00 0.00 19 1021.8
20240612113711 58 223 0.0 1.0 0.00 0.00 0.00 20 1021.8
20240612113147 58 221 0.0 1.0 0.00 0.00 0.00 20 1021.8
20240612112657 58 221 0.0 1.0 0.00 0.00 0.00 20 1021.7
20240612112154 58 221 0.0 1.0 0.00 0.00 0.00 20 1021.8
20240612111712 58 220 0.0 1.0 0.00 0.00 0.00 19 1021.7
20240612111148 59 221 0.0 1.0 0.00 0.00 0.00 20 1021.8
20240612110706 59 221 0.0 1.0 0.00 0.00 0.00 20 1021.7
20240612110142 58 245 0.0 1.0 0.00 0.00 0.00 20 1021.7
20240612105659 57 205 0.0 1.0 0.00 0.00 0.00 21 1021.7
20240612105156 57 205 0.0 2.0 0.00 0.00 0.00 24 1021.7
20240612104654 57 243 0.0 2.0 0.00 0.00 0.00 24 1021.8
20240612104150 56 231 0.0 1.0 0.00 0.00 0.00 25 1021.8
20240612103648 56 195 0.0 0.0 0.00 0.00 0.00 27 1021.8
20240612103145 57 194 0.0 0.0 0.00 0.00 0.00 26 1021.9
20240612102702 57 186 0.0 0.0 0.00 0.00 0.00 27 1021.9
20240612102157 57 186 0.0 0.0 0.00 0.00 0.00 27 1021.9
20240612101655 57 186 0.0 0.0 0.00 0.00 0.00 27 1021.9
20240612101157 57 186 0.0 0.0 0.00 0.00 0.00 27 1021.9
20240612100653 57 186 0.0 1.0 0.00 0.00 0.00 27 1021.9
20240612100152 57 249 0.0 1.0 0.00 0.00 0.00 27 1022.0
20240612095650 57 249 0.0 1.0 0.00 0.00 0.00 27 1022.0
20240612095147 58 212 0.0 1.0 0.00 0.00 0.00 27 1022.0
20240612094644 58 211 0.0 0.0 0.00 0.00 0.00 27 1022.1
20240612094202 58 211 0.0 0.0 0.00 0.00 0.00 27 1022.1
20240612093658 58 211 0.0 0.0 0.00 0.00 0.00 26 1022.2
20240612093155 59 211 0.0 0.0 0.00 0.00 0.00 26 1022.1
20240612092652 58 210 0.0 1.0 0.00 0.00 0.00 27 1022.2
20240612092150 58 210 0.0 1.0 0.00 0.00 0.00 27 1022.1
20240612091647 59 210 0.0 1.0 0.00 0.00 0.00 26 1022.2
20240612091145 59 195 0.0 0.0 0.00 0.00 0.00 26 1022.1
20240612090701 59 195 0.0 0.0 0.00 0.00 0.00 26 1022.2
20240612090158 59 195 0.0 0.0 0.00 0.00 0.00 26 1022.2
20240612085158 60 195 0.0 0.0 0.00 0.00 0.00 25 1022.3
20240612084655 60 195 0.0 0.0 0.00 0.00 0.00 24 1022.2
20240612084154 60 195 0.0 0.0 0.00 0.00 0.00 24 1022.3
20240612083652 60 195 0.0 0.0 0.00 0.00 0.00 23 1022.3
20240612083210 60 195 0.0 0.0 0.00 0.00 0.00 23 1022.3
20240612082647 61 195 0.0 0.0 0.00 0.00 0.00 23 1022.3
20240612082144 61 195 0.0 0.0 0.00 0.00 0.00 22 1022.4
20240612081702 61 195 0.0 0.0 0.00 0.00 0.00 22 1022.5
20240612081151 61 195 0.0 0.0 0.00 0.00 0.00 21 1022.5
20240612080649 61 195 0.0 0.0 0.00 0.00 0.00 21 1022.5
20240612080146 61 195 0.0 0.0 0.00 0.00 0.00 21 1022.5
20240612075645 62 195 0.0 1.0 0.00 0.00 0.00 21 1022.5
20240612075203 62 192 0.0 1.0 0.00 0.00 0.00 21 1022.5
20240612074700 62 198 0.0 1.0 0.00 0.00 0.00 21 1022.6
20240612074157 62 193 0.0 2.0 0.00 0.00 0.00 21 1022.6
20240612073654 61 146 0.0 2.0 0.00 0.00 0.00 22 1022.5
20240612073152 61 225 0.0 0.0 0.00 0.00 0.00 25 1022.6
20240612072651 61 203 0.0 1.0 0.00 0.00 0.00 27 1022.7
20240612072153 61 205 0.0 1.0 0.00 0.00 0.00 28 1022.7
20240612071644 61 208 0.0 1.0 0.00 0.00 0.00 29 1022.7
20240612071203 61 208 0.0 1.0 0.00 0.00 0.00 30 1022.7
20240612070659 61 211 0.0 1.0 0.00 0.00 0.00 31 1022.8
20240612070156 61 211 0.0 1.0 0.00 0.00 0.00 32 1022.8
20240612065653 61 196 0.0 1.0 0.00 0.00 0.00 32 1022.8
20240612065151 61 227 0.0 1.0 0.00 0.00 0.00 33 1022.8
20240612064703 61 201 0.0 1.0 0.00 0.00 0.00 33 1022.8
20240612064201 61 188 0.0 0.0 0.00 0.00 0.00 32 1022.8
20240612063656 61 188 0.0 0.0 0.00 0.00 0.00 32 1022.8
20240612063153 61 188 0.0 0.0 0.00 0.00 0.00 31 1022.9
20240612062650 61 190 0.0 0.0 0.00 0.00 0.00 31 1022.9
20240612062218 61 190 0.0 1.0 0.00 0.00 0.00 31 1022.9
20240612061654 61 181 0.0 1.0 0.00 0.00 0.00 32 1022.9
20240612061153 61 203 0.0 0.0 0.00 0.00 0.00 32 1023.1
20240612060651 61 203 0.0 0.0 0.00 0.00 0.00 31 1023.1
20240612060148 61 203 0.0 0.0 0.00 0.00 0.00 31 1023.1
20240612055708 62 203 0.0 0.0 0.00 0.00 0.00 31 1023.1
20240612055147 62 203 0.0 0.0 0.00 0.00 0.00 30 1023.1
20240612054645 62 203 0.0 1.0 0.00 0.00 0.00 30 1023.1
20240612054222 63 203 0.0 1.0 0.00 0.00 0.00 30 1023.2
20240612053719 63 335 0.0 1.0 0.00 0.00 0.00 29 1023.2
20240612053154 63 335 0.0 1.0 0.00 0.00 0.00 29 1023.2
20240612052652 63 167 0.0 0.0 0.00 0.00 0.00 29 1023.2
20240612052148 62 165 0.0 0.0 0.00 0.00 0.00 29 1023.2
20240612051645 62 165 0.0 1.0 0.00 0.00 0.00 29 1023.2
20240612051222 62 163 0.0 1.0 0.00 0.00 0.00 29 1023.2
20240612050658 62 136 0.0 1.0 0.00 0.00 0.00 29 1023.2
20240612050155 62 136 0.0 1.0 0.00 0.00 0.00 29 1023.2
20240612045709 62 126 0.0 0.0 0.00 0.00 0.00 28 1023.2
20240612045145 62 126 0.0 0.0 0.00 0.00 0.00 28 1023.2
20240612044703 62 122 0.0 0.0 0.00 0.00 0.00 28 1023.1
20240612044200 62 122 0.0 0.0 0.00 0.00 0.00 28 1023.1
20240612043718 62 122 0.0 0.0 0.00 0.00 0.00 28 1023.1
20240612043154 62 122 0.0 0.0 0.00 0.00 0.00 28 1023.0
20240612042650 63 122 0.0 0.0 0.00 0.00 0.00 28 1022.9
20240612042208 63 122 0.0 0.0 0.00 0.00 0.00 27 1022.9
20240612041644 63 122 0.0 0.0 0.00 0.00 0.00 27 1022.8
20240612041202 63 122 0.0 0.0 0.00 0.00 0.00 26 1022.8
20240612040659 64 122 0.0 0.0 0.00 0.00 0.00 27 1022.7
20240612040156 64 122 0.0 1.0 0.00 0.00 0.00 26 1022.7
20240612035710 64 122 0.0 1.0 0.00 0.00 0.00 26 1022.7
20240612035150 64 92 0.0 0.0 0.00 0.00 0.00 25 1022.6
20240612034647 64 92 0.0 0.0 0.00 0.00 0.00 25 1022.6
20240612034205 64 92 0.0 0.0 0.00 0.00 0.00 25 1022.5
20240612033720 65 92 0.0 0.0 0.00 0.00 0.00 25 1022.5
20240612033156 65 92 0.0 0.0 0.00 0.00 0.00 25 1022.5
20240612032655 65 92 0.0 1.0 0.00 0.00 0.00 25 1022.4
20240612032152 65 92 0.0 1.0 0.00 0.00 0.00 25 1022.4
20240612031711 65 92 0.0 1.0 0.00 0.00 0.00 25 1022.4
20240612031207 66 92 0.0 1.0 0.00 0.00 0.00 25 1022.3
20240612030723 66 92 0.0 1.0 0.00 0.00 0.00 25 1022.3
20240612030155 66 72 0.0 0.0 0.00 0.00 0.00 24 1022.2
20240612025653 67 72 0.0 0.0 0.00 0.00 0.00 23 1022.3
20240612025149 67 72 0.0 0.0 0.00 0.00 0.00 23 1022.2
20240612024646 68 72 0.0 0.0 0.00 0.00 0.00 23 1022.2
20240612024202 68 69 0.0 0.0 0.00 0.00 0.00 23 1022.2
20240612023700 69 69 0.0 0.0 0.00 0.00 0.00 22 1022.2
20240612023215 69 69 0.0 0.0 0.00 0.00 0.00 22 1022.1
20240612022712 70 136 0.0 1.0 0.00 0.00 0.00 22 1022.1
20240612022209 70 136 0.0 1.0 0.00 0.00 0.00 21 1022.0
20240612021726 70 142 0.0 1.0 0.00 0.00 0.00 21 1021.9
20240612021202 70 153 0.0 0.0 0.00 0.00 0.00 21 1022.0
20240612020659 71 179 0.0 1.0 0.00 0.00 0.00 20 1021.9
20240612020218 71 65 0.0 1.0 0.00 0.00 0.00 20 1021.9
20240612015655 71 160 0.0 1.0 0.00 0.00 0.00 19 1021.8
20240612015152 72 155 0.0 3.0 0.00 0.00 0.00 20 1021.9
20240612014710 72 156 0.0 3.0 0.00 0.00 0.00 20 1021.8
20240612014205 72 129 0.0 3.0 0.00 0.00 0.00 19 1021.9
20240612013701 73 223 0.0 3.0 0.00 0.00 0.00 20 1021.8
20240612013201 73 198 0.0 3.0 0.00 0.00 0.00 21 1021.9
20240612012657 73 48 1.0 2.0 0.00 0.00 0.00 20 1021.8
20240612012154 73 113 0.0 2.0 0.00 0.00 0.00 20 1021.7
20240612011647 73 49 1.0 3.0 0.00 0.00 0.00 20 1021.7
20240612011225 73 73 1.0 3.0 0.00 0.00 0.00 20 1021.7
20240612010701 74 2 1.0 6.0 0.00 0.00 0.00 20 1021.6
20240612010153 74 68 3.0 6.0 0.00 0.00 0.00 19 1021.6
20240612005647 74 80 1.0 4.0 0.00 0.00 0.00 20 1021.6
20240612005200 74 16 2.0 6.0 0.00 0.00 0.00 19 1021.7
20240612004713 74 44 1.0 6.0 0.00 0.00 0.00 18 1021.7
20240612004201 75 60 1.0 3.0 0.00 0.00 0.00 18 1021.7
20240612003653 75 55 1.0 3.0 0.00 0.00 0.00 17 1021.7
20240612003205 75 104 0.0 1.0 0.00 0.00 0.00 14 1021.8
20240612002657 76 103 0.0 1.0 0.00 0.00 0.00 17 1021.8
20240612002212 76 306 0.0 3.0 0.00 0.00 0.00 18 1021.8
20240612001650 76 303 0.0 3.0 0.00 0.00 0.00 17 1021.9
20240612001148 76 261 1.0 4.0 0.00 0.00 0.00 17 1021.9
20240612000705 76 223 1.0 4.0 0.00 0.00 0.00 17 1021.9
20240612000204 76 220 1.0 3.0 0.00 0.00 0.00 19 1021.9
20240611235702 77 229 1.0 5.0 0.00 0.00 0.00 18 1021.9
20240611235221 77 110 1.0 5.0 0.00 0.00 0.00 20 1021.9
20240611234657 77 269 1.0 2.0 0.00 0.00 0.00 18 1022.0
20240611234153 77 48 0.0 2.0 0.00 0.00 0.00 15 1022.0
20240611233650 77 147 0.0 4.0 0.00 0.00 0.00 14 1022.1
20240611233227 77 87 0.0 4.0 0.00 0.00 0.00 14 1022.0
20240611232648 78 61 1.0 3.0 0.00 0.00 0.00 11 1022.0
20240611232222 78 184 1.0 3.0 0.00 0.00 0.00 14 1022.1
20240611231703 78 155 0.0 4.0 0.00 0.00 0.00 15 1022.0
20240611231201 78 220 1.0 5.0 0.00 0.00 0.00 15 1022.1
20240611230657 78 233 1.0 5.0 0.00 0.00 0.00 16 1022.1
20240611230153 78 217 0.0 2.0 0.00 0.00 0.00 14 1022.2
20240611225713 78 143 1.0 2.0 0.00 0.00 0.00 14 1022.2
20240611225150 79 24 0.0 2.0 0.00 0.00 0.00 14 1022.1
20240611224728 79 98 0.0 2.0 0.00 0.00 0.00 13 1022.3
20240611224223 80 74 1.0 4.0 0.00 0.00 0.00 13 1022.2
20240611223653 80 39 1.0 4.0 0.00 0.00 0.00 16 1022.3
20240611223150 81 219 1.0 4.0 0.00 0.00 0.00 16 1022.3
20240611222647 80 212 1.0 4.0 0.00 0.00 0.00 15 1022.4
20240611222205 80 298 1.0 7.0 0.00 0.00 0.00 13 1022.4
20240611221703 80 210 2.0 7.0 0.00 0.00 0.00 14 1022.4
20240611221222 81 238 1.0 4.0 0.00 0.00 0.00 15 1022.4
20240611220658 81 221 1.0 4.0 0.00 0.00 0.00 15 1022.4
20240611220155 81 139 1.0 4.0 0.00 0.00 0.00 15 1022.4
20240611215715 82 115 0.0 3.0 0.00 0.00 0.00 14 1022.6
20240611215151 83 124 0.0 3.0 0.00 0.00 0.00 15 1022.6
20240611214649 83 68 1.0 3.0 0.00 0.00 0.00 14 1022.5
20240611214206 83 171 1.0 3.0 0.00 0.00 0.00 18 1022.5
20240611213647 83 274 0.0 3.0 0.00 0.00 0.00 16 1022.6
20240611213205 82 153 0.0 4.0 0.00 0.00 0.00 16 1022.6
20240611212701 82 204 1.0 4.0 0.00 0.00 0.00 18 1022.6
20240611212158 83 221 1.0 4.0 0.00 0.00 0.00 16 1022.7
20240611211655 84 202 0.0 2.0 0.00 0.00 0.00 16 1022.7
20240611211152 83 260 0.0 4.0 0.00 0.00 0.00 16 1022.7
20240611210649 82 146 1.0 4.0 0.00 0.00 0.00 18 1022.7
20240611210205 82 247 1.0 6.0 0.00 0.00 0.00 17 1022.7
20240611205702 82 205 2.0 11.0 0.00 0.00 0.00 17 1022.7
20240611205219 81 226 2.0 11.0 0.00 0.00 0.00 16 1022.6
20240611204656 80 39 4.0 8.0 0.00 0.00 0.00 12 1022.4
20240611204152 80 97 1.0 6.0 0.00 0.00 0.00 15 1022.8
20240611203649 80 63 2.0 6.0 0.00 0.00 0.00 15 1023.0
20240611203207 80 166 2.0 6.0 0.00 0.00 0.00 17 1023.0
20240611202703 80 56 1.0 7.0 0.00 0.00 0.00 16 1023.0
20240611202200 79 57 3.0 7.0 0.00 0.00 0.00 16 1023.0
20240611201659 79 62 1.0 6.0 0.00 0.00 0.00 17 1022.9
20240611201201 79 60 3.0 9.0 0.00 0.00 0.00 15 1023.0
20240611200657 79 45 3.0 9.0 0.00 0.00 0.00 15 1023.0
20240611200154 79 41 2.0 7.0 0.00 0.00 0.00 16 1023.1
20240611195653 79 43 4.0 7.0 0.00 0.00 0.00 17 1023.1
20240611195151 80 37 2.0 5.0 0.00 0.00 0.00 16 1023.2
20240611194648 80 62 1.0 7.0 0.00 0.00 0.00 15 1023.2
20240611194225 79 83 2.0 7.0 0.00 0.00 0.00 15 1023.2
20240611193700 78 49 2.0 6.0 0.00 0.00 0.00 15 1023.1
20240611193157 78 68 2.0 7.0 0.00 0.00 0.00 16 1023.1
20240611192654 77 44 3.0 8.0 0.00 0.00 0.00 17 1023.2
20240611192152 77 46 4.0 8.0 0.00 0.00 0.00 13 1023.3
20240611191648 78 53 3.0 8.0 0.00 0.00 0.00 14 1023.2
20240611191206 78 63 2.0 7.0 0.00 0.00 0.00 16 1023.3
20240611190703 77 39 3.0 7.0 0.00 0.00 0.00 15 1023.3
20240611190159 77 67 3.0 6.0 0.00 0.00 0.00 15 1023.3
20240611185705 77 43 3.0 7.0 0.00 0.00 0.00 15 1023.3
20240611185200 77 51 3.0 7.0 0.00 0.00 0.00 15 1023.3
20240611184702 77 104 2.0 6.0 0.00 0.00 0.00 17 1023.3
20240611184219 77 19 3.0 6.0 0.00 0.00 0.00 16 1023.2
20240611183656 77 18 3.0 7.0 0.00 0.00 0.00 16 1023.3
20240611183153 76 45 3.0 8.0 0.00 0.00 0.00 17 1023.3
20240611182705 76 94 3.0 8.0 0.00 0.00 0.00 17 1023.3
20240611182201 76 70 3.0 7.0 0.00 0.00 0.00 17 1023.3
20240611181656 76 60 4.0 7.0 0.00 0.00 0.00 15 1023.2
20240611181214 76 113 3.0 10.0 0.00 0.00 0.00 17 1023.2
20240611180650 75 42 4.0 10.0 0.00 0.00 0.00 16 1023.1
20240611180207 76 18 4.0 10.0 0.00 0.00 0.00 16 1023.1
20240611175723 76 58 3.0 7.0 0.00 0.00 0.00 16 1023.2
20240611175158 75 82 2.0 7.0 0.00 0.00 0.00 18 1023.2
20240611174705 76 6 3.0 6.0 0.00 0.00 0.00 17 1023.3
20240611174201 76 87 1.0 8.0 0.00 0.00 0.00 18 1023.3
20240611173658 75 58 3.0 8.0 0.00 0.00 0.00 18 1023.2
20240611173150 75 52 2.0 6.0 0.00 0.00 0.00 18 1023.2
20240611172728 75 63 3.0 6.0 0.00 0.00 0.00 18 1023.2
20240611172205 75 58 2.0 6.0 0.00 0.00 0.00 19 1023.3
20240611171722 74 37 3.0 8.0 0.00 0.00 0.00 19 1023.2
20240611171158 74 32 4.0 8.0 0.00 0.00 0.00 18 1023.1
20240611170655 74 29 2.0 6.0 0.00 0.00 0.00 19 1023.1
20240611170152 74 65 3.0 7.0 0.00 0.00 0.00 19 1023.1
20240611165728 74 74 4.0 8.0 0.00 0.00 0.00 19 1023.1
20240611165225 74 49 3.0 8.0 0.00 0.00 0.00 19 1023.0
20240611164701 73 51 4.0 7.0 0.00 0.00 0.00 19 1023.0
20240611164203 73 41 3.0 6.0 0.00 0.00 0.00 20 1023.1
20240611163700 73 64 3.0 6.0 0.00 0.00 0.00 19 1023.1
20240611163216 73 40 3.0 8.0 0.00 0.00 0.00 20 1023.1
20240611162652 73 39 4.0 8.0 0.00 0.00 0.00 19 1023.1
20240611162210 73 37 2.0 4.0 0.00 0.00 0.00 21 1023.1
20240611161707 73 46 1.0 6.0 0.00 0.00 0.00 21 1023.0
20240611161204 73 86 2.0 6.0 0.00 0.00 0.00 21 1023.1
20240611160722 72 44 2.0 6.0 0.00 0.00 0.00 22 1023.1